Weather History for New Orleans Lakefront, LA

Change the Weather History Date:

Thursday, July 18, 2013

  Actual Average Record
Temperature  
Mean Temperature 83 °F 83 °F  
Max Temperature 90 °F 91 °F 97 °F (2000)
Min Temperature 75 °F 75 °F 66 °F (1967)
Degree Days  
Heating Degree Days 0 0  
Month to date heating degree days 0 0  
Since 1 June heating degree days 0 0  
Since 1 July heating degree days 0 0  
Cooling Degree Days 18 18  
Month to date cooling degree days 303 324  
Year to date cooling degree days 1337 1438  
Since 1 June cooling degree days 844 819  
Growing Degree Days 36 (Base 50)    
Moisture  
Dew Point 73 °F    
Average Humidity 76    
Maximum Humidity 94    
Minimum Humidity 57    
Precipitation  
Precipitation 0.54 in 0.18 in 1.60 in (1991)
Month to date precipitation 3.53 3.64  
Year to date precipitation 42.65 35.94  
Snow  
Snow 0.00 in - - ()
Month to date snowfall 0.0  
Since 1 June snowfall 0.0  
Since 1 July snowfall 0.0  
Snow Depth 0.00 in    
Sea Level Pressure  
Sea Level Pressure 30.08 in    
Wind  
Wind Speed 5 mph (NE)    
Max Wind Speed 21 mph    
Max Gust Speed 29 mph    
Visibility 10 miles    
Events      
T = Trace of Precipitation, MM = Missing Value Source: NWS Daily Summary

Daily Weather History Graph

Daily Weather History Graph

Search for Another Location

Airport:

Trip Planner

Search our weather history database for the weather conditions in past years. The results will help you decide how hot, cold, wet, or windy it might be!

Date:

Astronomy

Jul. 18, 2013 Rise Set
Actual Time 6:10 AM CDT 8:01 PM CDT
Civil Twilight 5:44 AM CDT 8:28 PM CDT
Nautical Twilight 5:11 AM CDT 9:00 PM CDT
Astronomical Twilight 4:37 AM CDT 9:34 PM CDT
Moon 4:00 PM CDT 1:57 AM CDT
Length of Visible Light 14h 43m
Length of Day
13h 50m
Waxing Gibbous, 77% of the Moon is Illuminated
Jul 18
Waxing Gibbous
Jul 22
Full
Jul 29
Last Quarter
Aug 6
New
Aug 14
First Quarter

Hourly Weather History & Observations

Time (CDT) Temp. Heat Index Dew Point Humidity Pressure Visibility Wind Dir Wind Speed Gust Speed Precip Events Conditions
12:53 AM 82.0 °F 87.9 °F 73.9 °F 76% 30.13 in 10.0 mi ENE 5.8 mph - N/A   Clear
1:53 AM 82.9 °F 88.8 °F 73.0 °F 72% 30.12 in 10.0 mi ENE 4.6 mph - N/A   Clear
2:53 AM 82.0 °F 89.4 °F 75.9 °F 82% 30.10 in 10.0 mi NE 4.6 mph - N/A   Clear
3:53 AM 81.0 °F 86.7 °F 75.0 °F 82% 30.09 in 10.0 mi North 5.8 mph - N/A   Clear
4:53 AM 81.0 °F 86.2 °F 73.9 °F 79% 30.08 in 10.0 mi North 4.6 mph - N/A   Clear
5:53 AM 81.0 °F 86.2 °F 73.9 °F 79% 30.09 in 10.0 mi North 4.6 mph - N/A   Clear
6:53 AM 82.0 °F 87.4 °F 73.0 °F 74% 30.09 in 10.0 mi North 5.8 mph - N/A   Clear
7:53 AM 84.0 °F 91.9 °F 75.0 °F 74% 30.10 in 10.0 mi North 8.1 mph - N/A   Partly Cloudy
8:53 AM 84.0 °F 91.9 °F 75.0 °F 74% 30.12 in 10.0 mi North 10.4 mph - N/A   Clear
9:53 AM 84.9 °F 93.3 °F 75.0 °F 72% 30.13 in 10.0 mi North 5.8 mph - N/A   Partly Cloudy
10:53 AM 86.0 °F 93.8 °F 73.9 °F 67% 30.12 in 10.0 mi NE 21.9 mph - N/A   Mostly Cloudy
11:05 AM 84.2 °F 89.6 °F 71.6 °F 66% 30.14 in 10.0 mi NE 20.7 mph - N/A   Scattered Clouds
11:53 AM 86.0 °F 93.0 °F 73.0 °F 65% 30.12 in 10.0 mi East 12.7 mph - N/A   Partly Cloudy
12:53 PM 88.0 °F 96.5 °F 73.9 °F 63% 30.10 in 10.0 mi East 11.5 mph - N/A   Partly Cloudy
1:53 PM 89.1 °F 97.0 °F 73.0 °F 59% 30.07 in 10.0 mi East 8.1 mph - N/A   Partly Cloudy
2:53 PM 89.1 °F 97.0 °F 73.0 °F 59% 30.04 in 10.0 mi ENE 6.9 mph - N/A   Partly Cloudy
3:53 PM 89.1 °F 98.0 °F 73.9 °F 61% 30.01 in 10.0 mi NNE 9.2 mph - N/A   Partly Cloudy
4:53 PM 89.1 °F 98.0 °F 73.9 °F 61% 30.00 in 8.0 mi NNE 5.8 mph - N/A   Scattered Clouds
5:53 PM 90.0 °F 96.9 °F 72.0 °F 55% 30.00 in 10.0 mi ENE 9.2 mph - N/A   Clear
6:53 PM 84.9 °F 90.7 °F 72.0 °F 65% 30.01 in 10.0 mi WSW 9.2 mph - N/A   Clear
7:53 PM 82.9 °F 88.0 °F 72.0 °F 69% 30.03 in 10.0 mi South 3.5 mph - N/A   Clear
8:53 PM 84.0 °F 90.2 °F 73.0 °F 69% 30.04 in 10.0 mi Calm Calm - N/A   Mostly Cloudy
9:53 PM 84.9 °F 93.3 °F 75.0 °F 72% 30.05 in 10.0 mi East 4.6 mph - N/A   Scattered Clouds
10:18 PM 84.2 °F 90.9 °F 73.4 °F 70% 30.07 in 10.0 mi Calm Calm - N/A   Mostly Cloudy
10:26 PM 84.2 °F 92.3 °F 75.2 °F 74% 30.07 in 10.0 mi SE 4.6 mph - N/A   Mostly Cloudy
10:34 PM 84.2 °F 92.3 °F 75.2 °F 74% 30.07 in 10.0 mi SSE 5.8 mph - N/A   Overcast
10:53 PM 82.0 °F 86.3 °F 71.1 °F 69% 30.06 in 10.0 mi NNW 9.2 mph - N/A   Overcast
11:27 PM 82.4 °F 86.3 °F 69.8 °F 66% 30.08 in 10.0 mi NNW 3.5 mph - N/A   Scattered Clouds
11:53 PM 82.9 °F 87.5 °F 71.1 °F 67% 30.05 in 10.0 mi Calm Calm - N/A   Clear